GW5135 Weather Reports


time (UTC)temp
C
wind
direction
speed
KPH
gust
KPH
rain 1hr
cm
rain 24hr
cm
rain mn
cm
humidity
%
barometer
mb
20260507083921 10 312 0.0 0.0 0.00 0.03 0.03 99 1015.5
20260507083417 10 312 0.0 0.0 0.00 0.03 0.03 99 1015.7
20260507082913 10 312 0.0 0.0 0.00 0.03 0.03 99 1015.6
20260507082409 10 312 0.0 0.0 0.00 0.03 0.03 99 1015.5
20260507081906 10 312 0.0 0.0 0.00 0.03 0.03 99 1015.5
20260507081402 10 312 0.0 0.0 0.00 0.03 0.03 99 1015.7
20260507080859 10 312 0.0 0.0 0.00 0.03 0.03 99 1015.5
20260507080355 10 312 0.0 0.0 0.00 0.03 0.03 99 1015.6
20260507075851 10 312 0.0 0.0 0.00 0.03 0.03 99 1015.3
20260507075347 10 312 0.0 0.0 0.00 0.03 0.03 99 1015.7
20260507074844 10 312 0.0 0.0 0.00 0.03 0.03 99 1015.3
20260507074341 10 312 0.0 0.0 0.00 0.03 0.03 99 1015.5
20260507073838 10 312 0.0 0.0 0.00 0.03 0.03 99 1015.6
20260507073335 10 312 0.0 0.0 0.00 0.03 0.03 99 1015.5
20260507072832 10 312 0.0 0.0 0.00 0.03 0.03 99 1015.5
20260507072329 10 312 0.0 0.0 0.00 0.03 0.03 99 1015.6
20260507071827 10 312 0.0 0.0 0.00 0.03 0.03 99 1015.5
20260507071324 10 312 0.0 0.0 0.00 0.03 0.03 99 1015.5
20260507070820 10 312 0.0 0.0 0.00 0.03 0.03 99 1015.4
20260507070318 10 312 0.0 0.0 0.00 0.03 0.03 99 1015.3
20260507065814 10 312 0.0 0.0 0.00 0.03 0.03 99 1015.5
20260507065310 10 312 0.0 0.0 0.00 0.03 0.03 99 1015.5
20260507064808 10 312 0.0 0.0 0.00 0.03 0.03 99 1015.3
20260507064307 10 312 0.0 0.0 0.00 0.03 0.03 99 1015.4
20260507063804 10 312 0.0 0.0 0.00 0.03 0.03 99 1015.5
20260507063301 10 312 0.0 0.0 0.00 0.03 0.03 99 1015.8
20260507062757 10 312 0.0 0.0 0.00 0.03 0.03 99 1015.4
20260507062254 10 312 0.0 0.0 0.00 0.03 0.03 99 1015.7
20260507061752 10 312 0.0 0.0 0.00 0.03 0.03 99 1015.6
20260507061250 10 312 0.0 0.0 0.00 0.03 0.03 99 1015.5
20260507060748 10 312 0.0 0.0 0.00 0.03 0.03 99 1015.6
20260507060244 10 312 0.0 0.0 0.00 0.03 0.03 99 1015.7
20260507055741 10 312 0.0 0.0 0.00 0.03 0.03 99 1015.6
20260507055236 10 312 0.0 0.0 0.00 0.03 0.03 98 1015.7
20260507054733 10 312 0.0 0.0 0.00 0.03 0.03 98 1015.8
20260507054230 10 312 0.0 0.0 0.00 0.03 0.03 98 1016.2
20260507053727 10 312 0.0 0.0 0.00 0.03 0.03 97 1015.8
20260507053225 10 312 0.0 1.6 0.00 0.03 0.03 97 1016.0
20260507052724 10 281 0.0 1.6 0.00 0.03 0.03 97 1016.0
20260507052219 10 281 0.0 1.6 0.00 0.03 0.03 97 1016.2
20260507051718 10 253 0.0 1.6 0.00 0.03 0.03 97 1016.2
20260507051214 10 255 0.0 3.2 0.00 0.03 0.03 97 1016.1
20260507050711 10 275 1.6 3.2 0.00 0.03 0.03 97 1016.1
20260507050208 10 248 3.2 4.8 0.00 0.03 0.03 97 1016.2
20260507045704 10 283 1.6 3.2 0.18 0.03 0.03 98 1016.2
20260507045200 11 285 8.0 12.9 0.18 0.03 0.03 99 1015.8
20260507044658 11 283 1.6 3.2 0.00 0.00 0.00 99 1016.0
20260507044154 11 47 0.0 0.0 0.00 0.00 0.00 99 1015.7
20260507043651 11 58 0.0 0.0 0.00 0.00 0.00 99 1015.7
20260507043148 11 58 0.0 0.0 0.00 0.00 0.00 99 1015.5
20260507042644 11 73 0.0 0.0 0.00 0.00 0.00 99 1015.5
20260507042139 11 73 0.0 0.0 0.00 0.00 0.00 99 1015.6
20260507041636 11 74 0.0 0.0 0.00 0.00 0.00 99 1015.6
20260507041133 11 51 0.0 0.0 0.00 0.00 0.00 99 1015.6
20260507040630 11 51 0.0 0.0 0.00 0.00 0.00 99 1015.6
20260507040126 11 51 0.0 0.0 0.00 1.52 1.52 99 1015.3
20260507035622 11 51 0.0 0.0 0.00 1.52 1.52 99 1015.2
20260507035118 11 50 0.0 0.0 0.00 1.52 1.52 99 1015.3
20260507034615 11 48 0.0 0.0 0.00 1.52 1.52 99 1015.2
20260507034113 11 30 0.0 1.6 0.00 1.52 1.52 99 1015.2
20260507033611 11 81 0.0 0.0 0.00 1.52 1.52 99 1015.5
20260507033108 11 81 0.0 0.0 0.00 1.52 1.52 99 1015.4
20260507032605 11 81 0.0 0.0 0.00 1.52 1.52 99 1015.4
20260507032101 11 85 0.0 0.0 0.00 1.52 1.52 99 1015.6
20260507031558 12 86 0.0 0.0 0.00 1.52 1.52 99 1015.3
20260507031055 12 92 0.0 0.0 0.00 1.52 1.52 99 1015.4
20260507030551 12 89 0.0 0.0 0.00 1.52 1.52 99 1015.3
20260507030049 12 112 0.0 0.0 0.00 1.52 1.52 99 1015.4
20260507025546 12 99 0.0 1.6 0.13 1.52 1.52 99 1015.5
20260507025043 12 343 0.0 0.0 0.13 1.52 1.52 99 1015.7
20260507024541 12 72 0.0 0.0 0.00 1.50 1.50 99 1015.5
20260507024038 12 311 0.0 0.0 0.00 1.50 1.50 99 1016.2
20260507023533 12 330 0.0 1.6 0.00 1.50 1.50 99 1016.3
20260507023031 12 333 0.0 1.6 0.00 1.50 1.50 99 1015.8
20260507022528 12 330 1.6 3.2 0.00 1.50 1.50 99 1015.7
20260507022029 12 79 0.0 0.0 0.00 1.50 1.50 99 1015.3
20260507021525 12 98 0.0 0.0 0.00 1.50 1.50 99 1015.2
20260507021022 12 85 0.0 0.0 0.00 1.50 1.50 99 1015.3
20260507020519 12 315 0.0 0.0 0.00 1.50 1.50 99 1015.5
20260507020015 12 315 0.0 1.6 0.00 1.50 1.50 99 1015.3
20260507015514 12 77 0.0 1.6 0.00 1.50 1.50 99 1014.8
20260507015011 12 85 0.0 0.0 0.00 1.50 1.50 98 1015.2
20260507014507 12 2 0.0 0.0 0.00 1.50 1.50 98 1015.3
20260507014003 12 2 0.0 0.0 0.00 1.50 1.50 98 1014.7
20260507013500 12 85 0.0 0.0 0.00 1.50 1.50 98 1014.7
20260507012957 12 43 1.6 3.2 0.00 1.50 1.50 99 1014.8
20260507012454 12 50 1.6 1.6 0.00 1.50 1.50 99 1014.7
20260507011951 12 115 0.0 0.0 0.00 1.50 1.50 99 1014.8
20260507011448 12 117 0.0 0.0 0.00 1.50 1.50 99 1014.3
20260507010943 12 117 0.0 0.0 0.00 1.50 1.50 99 1014.7
20260507010438 12 117 0.0 0.0 0.00 1.50 1.50 99 1014.6
20260507005935 12 117 0.0 0.0 0.00 1.50 1.50 98 1014.8
20260507005433 12 117 0.0 0.0 0.00 1.50 1.50 98 1014.6
20260507004930 12 117 0.0 0.0 0.00 1.50 1.50 98 1014.7
20260507004426 12 117 0.0 0.0 0.00 1.50 1.50 98 1014.6
20260507003923 12 117 0.0 0.0 0.00 1.50 1.50 98 1014.5
20260507003418 12 117 0.0 0.0 0.00 1.50 1.50 98 1014.6
20260507002914 12 118 0.0 0.0 0.00 1.50 1.50 98 1014.2
20260507002410 12 112 0.0 0.0 0.00 1.50 1.50 98 1014.6
20260507001907 12 113 0.0 1.6 0.00 1.50 1.50 97 1014.7
20260507001404 12 115 0.0 0.0 0.00 1.50 1.50 97 1014.5
20260507000902 12 115 0.0 0.0 0.00 1.50 1.50 97 1014.4
20260507000357 12 116 0.0 0.0 0.00 1.50 1.50 97 1014.2
20260506235853 12 116 0.0 1.6 0.00 1.50 1.50 97 1013.8
20260506235350 12 116 0.0 0.0 0.00 1.50 1.50 97 1014.1
20260506234845 12 116 0.0 0.0 0.00 1.50 1.50 97 1014.3
20260506234344 12 116 0.0 0.0 0.00 1.50 1.50 97 1014.1
20260506233841 12 117 1.6 1.6 0.00 1.50 1.50 96 1014.2
20260506233337 12 151 0.0 0.0 0.00 1.50 1.50 95 1014.7
20260506232834 13 172 0.0 0.0 0.00 1.50 1.50 95 1014.8
20260506232330 12 201 0.0 1.6 0.00 1.50 1.50 94 1014.4
20260506231826 12 200 0.0 1.6 0.00 1.50 1.50 94 1014.6
20260506231324 13 139 1.6 3.2 0.00 1.50 1.50 93 1014.4
20260506230821 13 188 0.0 1.6 0.00 1.50 1.50 93 1014.7
20260506230318 13 123 0.0 1.6 0.00 1.50 1.50 93 1014.4
20260506225814 13 159 0.0 0.0 0.00 1.50 1.50 92 1014.8
20260506225312 13 160 0.0 1.6 0.00 1.50 1.50 92 1014.5
20260506224808 13 220 0.0 0.0 0.00 1.50 1.50 92 1014.5
20260506224306 13 206 0.0 0.0 0.00 1.50 1.50 92 1014.6
20260506223802 13 190 1.6 1.6 0.00 1.50 1.50 92 1014.5
20260506223257 13 177 1.6 3.2 0.00 1.50 1.50 92 1014.4
20260506222754 13 173 1.6 1.6 0.00 1.50 1.50 91 1014.6
20260506222250 13 239 0.0 1.6 0.00 1.50 1.50 91 1014.8
20260506221748 13 148 0.0 1.6 0.00 1.50 1.50 92 1014.2
20260506221246 13 135 0.0 1.6 0.00 1.50 1.50 93 1014.1
20260506220743 12 192 1.6 3.2 0.00 1.50 1.50 93 1014.1
20260506220238 13 136 3.2 3.2 0.00 1.50 1.50 94 1014.1
20260506215735 12 125 4.8 4.8 0.00 1.50 1.50 93 1014.4
20260506215230 12 163 4.8 6.4 0.00 1.50 1.50 94 1014.1
20260506214727 13 165 1.6 4.8 0.00 1.50 1.50 93 1014.1
20260506214225 13 138 3.2 4.8 0.00 1.50 1.50 95 1014.0
20260506213723 13 139 3.2 4.8 0.00 1.50 1.50 94 1013.9
20260506213220 12 142 1.6 3.2 0.00 1.50 1.50 93 1014.1
20260506212717 13 155 3.2 3.2 0.00 1.50 1.50 94 1013.8
20260506212212 13 224 1.6 1.6 0.00 1.50 1.50 92 1013.9
20260506211707 13 234 0.0 1.6 0.00 1.50 1.50 91 1014.0
20260506211204 13 206 1.6 3.2 0.00 1.50 1.50 91 1014.1
20260506210701 13 155 0.0 0.0 0.00 1.50 1.50 91 1013.9
20260506210158 13 290 1.6 3.2 0.00 1.50 1.50 91 1013.9
20260506205655 13 271 0.0 0.0 0.00 1.50 1.50 90 1013.8
20260506205150 13 268 0.0 0.0 0.00 1.50 1.50 91 1013.9
20260506204648 13 270 0.0 3.2 0.00 1.50 1.50 91 1013.9
20260506204144 13 238 0.0 0.0 0.00 1.50 1.50 90 1013.7
20260506203643 13 227 1.6 3.2 0.00 1.50 1.50 90 1013.6
20260506203139 13 281 3.2 4.8 0.00 1.50 1.50 89 1013.6
20260506202637 13 277 3.2 4.8 0.00 1.50 1.50 88 1013.5
20260506202133 13 245 1.6 3.2 0.00 1.50 1.50 89 1013.3
20260506201630 13 244 4.8 4.8 0.00 1.50 1.50 89 1013.2
20260506201127 13 298 3.2 4.8 0.00 1.50 1.50 89 1013.4
20260506200623 13 267 3.2 4.8 0.00 1.50 1.50 89 1013.3
20260506200120 13 283 3.2 3.2 0.00 1.50 1.50 90 1013.3
20260506195617 -17 0.0 0.0 0.00 0.00 0.00 1013.2
20260506195113 -17 0.0 0.0 0.00 0.00 0.00 1013.3
20260506194611 -17 0.0 0.0 0.00 1.50 1.50 1013.3
20260506194107 -17 0.0 0.0 0.00 1.50 1.50 1013.1
20260506193605 -17 0.0 0.0 0.00 1.50 1.50 1013.0
20260506193101 -17 0.0 0.0 0.00 1.50 1.50 1013.0
20260506192558 -17 0.0 0.0 0.00 1.50 1.50 1012.8
20260506192054 -17 0.0 0.0 0.00 1.50 1.50 1012.9
20260506191551 -17 0.0 0.0 0.00 1.50 1.50 1013.0
20260506191047 -17 0.0 0.0 0.00 1.50 1.50 1013.0
20260506190544 -17 0.0 0.0 0.00 1.50 1.50 1012.9
20260506190041 -17 0.0 0.0 0.00 1.50 1.50 1012.9
20260506185539 13 284 6.4 6.4 0.00 1.50 1.50 93 1012.9
20260506185035 13 284 6.4 12.9 0.00 1.50 1.50 93 1013.0
20260506184532 -17 0.0 0.0 0.00 1.50 1.50 1012.8
20260506184030 -17 0.0 0.0 0.00 1.50 1.50 1012.9
20260506183525 15 142 1.6 1.6 0.00 1.50 1.50 90 1012.8
20260506183022 15 142 1.6 1.6 0.00 1.50 1.50 90 1012.8
20260506182520 -17 0.0 0.0 0.00 1.50 1.50 1012.7
20260506182017 -17 0.0 0.0 0.00 1.50 1.50 1012.5
20260506181514 -17 0.0 0.0 0.00 1.50 1.50 1012.5
20260506181011 -17 0.0 0.0 0.00 1.50 1.50 1012.4
20260506180508 14 218 3.2 3.2 0.00 1.50 1.50 93 1012.6
20260506180005 14 218 3.2 3.2 0.00 1.50 1.50 93 1012.6
20260506175501 14 220 0.0 0.0 0.00 1.50 1.50 94 1012.6
20260506174957 14 220 0.0 0.0 0.00 1.50 1.50 94 1012.5
20260506174456 14 260 3.2 3.2 0.00 1.50 1.50 94 1012.6
20260506173952 14 77 3.2 3.2 0.00 1.50 1.50 93 1012.7
20260506173450 14 256 1.6 1.6 0.00 1.50 1.50 94 1012.5
20260506172946 14 256 1.6 1.6 0.00 1.50 1.50 95 1012.5
20260506172444 14 228 0.0 1.6 0.00 1.50 1.50 95 1012.4
20260506171940 13 278 3.2 4.8 0.00 1.50 1.50 96 1012.6
20260506171437 14 221 4.8 6.4 0.00 1.50 1.50 96 1012.5
20260506170935 14 289 3.2 4.8 0.00 1.50 1.50 96 1012.5
20260506170431 15 261 4.8 4.8 0.00 1.50 1.50 95 1012.3
20260506165930 15 261 3.2 4.8 0.00 1.50 1.50 96 1012.5
20260506165428 15 284 4.8 6.4 0.00 1.50 1.50 96 1012.1
20260506164924 16 261 1.6 6.4 0.00 1.50 1.50 95 1012.0
20260506164421 16 268 3.2 4.8 0.00 1.50 1.50 95 1012.2
20260506163920 16 251 4.8 6.4 0.00 1.50 1.50 95 1012.2
20260506163420 16 204 1.6 3.2 0.00 1.50 1.50 95 1012.0
20260506162915 16 13 4.8 4.8 0.00 1.50 1.50 96 1011.9
20260506162413 16 89 1.6 1.6 0.00 1.50 1.50 96 1011.8
20260506161910 16 35 3.2 6.4 0.00 1.50 1.50 96 1011.9
20260506161408 16 193 1.6 3.2 0.00 1.50 1.50 95 1011.9
20260506160905 16 211 1.6 4.8 0.00 1.50 1.50 96 1011.6
20260506160402 16 28 1.6 1.6 0.00 1.50 1.50 97 1011.6
20260506155900 16 69 3.2 3.2 0.00 1.50 1.50 96 1011.6
20260506155356 16 305 0.0 6.4 0.00 1.50 1.50 96 1011.7
20260506153513 16 357 8.0 11.3 0.00 1.50 1.50 96 1011.6
20260506153011 16 306 1.6 4.8 0.00 1.50 1.50 97 1011.1
20260506152508 16 335 1.6 1.6 0.00 1.50 1.50 97 1011.2
20260506152006 16 337 3.2 4.8 0.00 1.50 1.50 97 1011.4
20260506151503 16 52 0.0 9.7 0.00 1.50 1.50 98 1011.0
20260506151000 16 318 6.4 9.7 0.00 1.50 1.50 99 1011.0
20260506150456 16 54 1.6 4.8 0.00 1.50 1.50 99 1011.1
20260506145953 16 22 1.6 3.2 0.00 1.50 1.50 99 1011.1
20260506145450 15 56 3.2 3.2 0.18 1.50 1.50 99 1011.1
20260506144948 15 343 3.2 4.8 0.18 1.50 1.50 99 1010.9
20260506144444 15 46 0.0 0.0 0.00 1.47 1.47 99 1011.2
20260506143942 15 67 0.0 3.2 0.00 1.47 1.47 99 1011.1
20260506143439 15 110 1.6 4.8 0.00 1.47 1.47 99 1010.8
20260506142937 15 145 0.0 1.6 0.00 1.47 1.47 99 1011.0
20260506142435 15 39 0.0 1.6 0.00 1.47 1.47 99 1010.7
20260506141933 15 39 3.2 4.8 0.00 1.47 1.47 99 1010.5
20260506141430 15 342 1.6 3.2 0.00 1.47 1.47 99 1010.5
20260506140929 15 43 1.6 1.6 0.00 1.47 1.47 99 1010.6
20260506140425 15 51 1.6 1.6 0.00 1.47 1.47 99 1010.5
20260506135922 15 68 0.0 1.6 0.00 1.47 1.47 99 1010.3
20260506135419 15 80 3.2 3.2 0.00 1.47 1.47 99 1010.3
20260506134915 15 78 0.0 0.0 0.00 1.47 1.47 99 1010.2
20260506134411 15 84 0.0 0.0 0.00 1.47 1.47 99 1010.2
20260506133909 15 83 0.0 0.0 0.00 1.47 1.47 99 1010.0
20260506133405 15 66 0.0 0.0 0.00 1.47 1.47 99 1010.2
20260506132902 15 68 0.0 0.0 0.13 1.47 1.47 99 1010.2
20260506132359 15 68 0.0 0.0 0.13 1.47 1.47 99 1010.4
20260506131857 15 70 0.0 0.0 0.00 1.45 1.45 99 1010.2
20260506131353 15 74 0.0 0.0 0.00 1.45 1.45 99 1010.2
20260506130850 14 62 0.0 0.0 0.00 1.45 1.45 99 1010.1
20260506130346 15 60 0.0 0.0 0.00 1.45 1.45 99 1010.3
20260506125845 15 60 0.0 0.0 0.00 1.45 1.45 99 1010.2
20260506125343 14 60 0.0 0.0 0.00 1.45 1.45 99 1009.9
20260506124841 14 60 0.0 0.0 0.00 1.45 1.45 99 1010.0
20260506124338 14 60 0.0 0.0 0.00 1.45 1.45 99 1010.1
20260506123835 14 60 0.0 0.0 0.18 1.45 1.45 99 1010.0
20260506123333 14 61 0.0 0.0 0.18 1.45 1.45 99 1010.2
20260506122830 14 69 0.0 0.0 0.00 1.42 1.42 99 1010.0
20260506122327 14 69 1.6 1.6 0.00 1.42 1.42 99 1010.2
20260506121826 14 70 0.0 0.0 0.13 1.42 1.42 99 1009.9
20260506121322 14 69 0.0 0.0 0.13 1.42 1.42 99 1010.1
20260506120819 14 28 0.0 0.0 0.00 1.40 1.40 99 1010.0
20260506120317 14 309 0.0 1.6 0.00 1.40 1.40 99 1010.2
20260506115814 14 309 0.0 0.0 0.18 1.40 1.40 99 1010.2
20260506115313 14 309 0.0 1.6 0.18 1.40 1.40 99 1010.2
20260506114810 14 309 0.0 0.0 0.00 1.37 1.37 99 1010.0
20260506114308 13 309 0.0 0.0 0.00 1.37 1.37 99 1009.7
20260506113806 13 309 0.0 3.2 0.00 1.37 1.37 99 1009.9
20260506113303 13 48 0.0 0.0 0.00 1.37 1.37 99 1009.9
20260506112800 13 42 0.0 1.6 0.00 1.37 1.37 99 1009.7
20260506112257 13 324 0.0 0.0 0.00 1.37 1.37 99 1009.7
20260506111754 13 85 1.6 3.2 0.00 1.37 1.37 99 1009.4
20260506111252 13 84 1.6 3.2 0.13 1.37 1.37 99 1009.3
20260506110749 13 59 1.6 4.8 0.13 1.37 1.37 99 1009.3
20260506110247 13 66 0.0 1.6 0.18 1.35 1.35 99 1009.2
20260506105743 13 78 3.2 4.8 0.36 1.35 1.35 99 1009.1
20260506105240 13 65 0.0 0.0 0.43 1.30 1.30 99 1009.4
20260506104738 13 83 0.0 0.0 0.48 1.27 1.27 99 1009.2
20260506104235 13 99 0.0 0.0 0.30 1.22 1.22 99 1009.1
20260506103732 13 102 0.0 0.0 0.43 1.19 1.19 99 1009.2
20260506103229 13 102 0.0 0.0 0.48 1.17 1.17 99 1008.9
20260506102727 13 126 0.0 0.0 0.30 1.12 1.12 99 1009.2
20260506102225 13 125 0.0 0.0 0.00 1.07 1.07 99 1008.8
20260506101721 13 172 3.2 3.2 0.00 1.07 1.07 99 1009.0
20260506101218 13 141 0.0 0.0 0.18 1.07 1.07 99 1008.7
20260506100716 13 150 3.2 3.2 0.18 1.07 1.07 99 1009.1
20260506100214 13 127 0.0 1.6 0.30 1.04 1.04 99 1008.9
20260506095712 13 103 0.0 0.0 0.66 1.02 1.02 99 1009.2
20260506095209 13 160 3.2 4.8 1.07 0.99 0.99 99 1009.3
20260506094706 13 160 3.2 4.8 0.89 0.91 0.91 99 1009.5
20260506094204 13 182 0.0 0.0 0.30 0.79 0.79 99 1009.6
20260506093703 13 184 0.0 0.0 0.30 0.76 0.76 99 1009.7
20260506093159 13 187 0.0 0.0 0.30 0.74 0.74 99 1009.9
20260506092657 13 187 0.0 0.0 0.61 0.71 0.71 99 1010.0
20260506092154 13 187 0.0 0.0 0.66 0.69 0.69 99 1009.9
20260506091652 13 198 0.0 0.0 0.48 0.61 0.61 99 1010.1
20260506091149 13 198 0.0 0.0 0.43 0.58 0.58 99 1010.0
20260506090647 13 198 0.0 1.6 0.71 0.53 0.53 99 1009.9
20260506090143 13 146 1.6 3.2 0.89 0.48 0.48 99 1009.8
20260506085640 13 266 0.0 1.6 0.79 0.38 0.38 99 1010.3
20260506085136 13 299 0.0 0.0 0.61 0.30 0.30 99 1010.3
20260506084633 13 282 0.0 0.0 0.43 0.25 0.25 99 1010.0